STARLINK-33567 (62773 NORAD) Tracking and Keplerian Element Data

This shows tracking and keplerian element data for the satellite.

Feedback or suggestion? Click here.




ElementValue
Catalog62773
NameSTARLINK-33567
Epoch Orbit339
Epoch Day35.25001157
Epoch Year2025
RAAN18.6527
Inclination53.1598
Eccentricity0.0001091
Argument of Perigee73.0173
Mean Anonmoly215.5355
Mean Motion15.7835303
Decay Rate-0.01085633
L11 62773U 25015R 25035.25001157 -.01085633 00000+0 -68638-2 0 9994
L22 62773 53.1598 18.6527 0001091 73.0173 215.5355 15.78353030 3395



Live tracking and technical data element details for STARLINK-33567 (NORAD 62773). STARLINK-33567 can be tracked NOW for your location showing map with azimuth and elevation plus other details from your city location.







IsCatalogInMostPopularTable: catalog: 62773, numindb: 3
Update: records affected: 1



GetName: 62773 STARLINK-33567

Hit Count: updated at: Sun, 09 Feb 2025 13:30:39 GMT